SA7BGG-5 Weather Reports


time (UTC)temp
C
wind
direction
speed
KPH
gust
KPH
rain 1hr
cm
rain 24hr
cm
rain mn
cm
humidity
%
barometer
mb
20260507070001 7 173 0.0 0.0 0.00 0.00 0.00 71 1020.0
20260507065501 7 154 0.0 0.0 0.00 0.00 0.00 75 1020.0
20260507065000 7 154 0.0 0.0 0.00 0.00 0.00 75 1020.0
20260507064500 6 144 0.0 0.0 0.00 0.00 0.00 80 1020.0
20260507064005 6 144 0.0 0.0 0.00 0.00 0.00 80 1020.0
20260507063504 6 142 0.0 0.0 0.00 0.00 0.00 85 1020.0
20260507063004 6 142 0.0 0.0 0.00 0.00 0.00 85 1020.0
20260507062504 6 142 0.0 0.0 0.00 0.00 0.00 87 1020.0
20260507062003 6 142 0.0 0.0 0.00 0.00 0.00 87 1020.0
20260507061503 5 142 0.0 0.0 0.00 0.00 0.00 87 1020.0
20260507061003 5 142 0.0 0.0 0.00 0.00 0.00 87 1020.0
20260507060502 5 144 0.0 0.0 0.00 0.00 0.00 87 1020.0
20260507060002 5 144 0.0 0.0 0.00 0.00 0.00 87 1020.0
20260507055502 4 151 0.0 0.0 0.00 0.00 0.00 87 1019.0
20260507055001 4 151 0.0 0.0 0.00 0.00 0.00 87 1019.0
20260507054501 4 183 0.0 0.0 0.00 0.00 0.00 87 1019.0
20260507054000 4 183 0.0 0.0 0.00 0.00 0.00 87 1019.0
20260507053500 3 187 0.0 0.0 0.00 0.00 0.00 87 1019.0
20260507053005 3 187 0.0 0.0 0.00 0.00 0.00 87 1019.0
20260507052505 3 180 0.0 0.0 0.00 0.00 0.00 87 1019.0
20260507052004 3 180 0.0 0.0 0.00 0.00 0.00 87 1019.0
20260507051504 3 181 0.0 0.0 0.00 0.00 0.00 87 1019.0
20260507051003 3 181 0.0 0.0 0.00 0.00 0.00 87 1019.0
20260507050503 3 118 0.0 0.0 0.00 0.00 0.00 87 1019.0
20260507050003 3 118 0.0 0.0 0.00 0.00 0.00 87 1019.0
20260507045503 3 60 0.0 0.0 0.00 0.00 0.00 87 1019.0
20260507045002 3 60 0.0 0.0 0.00 0.00 0.00 87 1019.0
20260507044502 3 58 0.0 0.0 0.00 0.00 0.00 87 1019.0
20260507044002 3 58 0.0 0.0 0.00 0.00 0.00 87 1019.0
20260507043501 2 58 0.0 0.0 0.00 0.00 0.00 87 1019.0
20260507043001 2 58 0.0 0.0 0.00 0.00 0.00 87 1019.0
20260507042501 2 58 0.0 0.0 0.00 0.00 0.00 87 1019.0
20260507042000 2 58 0.0 0.0 0.00 0.00 0.00 87 1019.0
20260507041505 2 58 0.0 0.0 0.00 0.00 0.00 87 1019.0
20260507041004 2 58 0.0 0.0 0.00 0.00 0.00 87 1019.0
20260507040504 2 58 0.0 0.0 0.00 0.00 0.00 87 1019.0
20260507040004 2 58 0.0 0.0 0.00 0.00 0.00 87 1019.0
20260507035503 2 58 0.0 0.0 0.00 0.00 0.00 87 1019.0
20260507035003 2 58 0.0 0.0 0.00 0.00 0.00 87 1019.0
20260507034503 2 58 0.0 0.0 0.00 0.00 0.00 86 1019.0
20260507034002 2 58 0.0 0.0 0.00 0.00 0.00 86 1019.0
20260507033502 2 58 0.0 0.0 0.00 0.00 0.00 87 1019.0
20260507033001 2 58 0.0 0.0 0.00 0.00 0.00 87 1019.0
20260507032501 2 58 0.0 0.0 0.00 0.00 0.00 87 1019.0
20260507032001 2 58 0.0 0.0 0.00 0.00 0.00 87 1019.0
20260507031500 2 58 0.0 0.0 0.00 0.00 0.00 86 1019.0
20260507031005 2 58 0.0 0.0 0.00 0.00 0.00 86 1019.0
20260507030505 2 56 0.0 0.0 0.00 0.00 0.00 86 1018.0
20260507030004 2 56 0.0 0.0 0.00 0.00 0.00 86 1018.0
20260507025504 2 56 0.0 0.0 0.00 0.00 0.00 86 1018.0
20260507025003 2 56 0.0 0.0 0.00 0.00 0.00 86 1018.0
20260507024503 2 69 0.0 0.0 0.00 0.00 0.00 86 1018.0
20260507024003 2 69 0.0 0.0 0.00 0.00 0.00 86 1018.0
20260507023502 2 69 0.0 0.0 0.00 0.00 0.00 86 1018.0
20260507023002 2 69 0.0 0.0 0.00 0.00 0.00 86 1018.0
20260507022501 2 69 0.0 0.0 0.00 0.00 0.00 86 1018.0
20260507022001 2 69 0.0 0.0 0.00 0.00 0.00 86 1018.0
20260507021500 2 69 0.0 0.0 0.00 0.00 0.00 85 1018.0
20260507021000 2 69 0.0 0.0 0.00 0.00 0.00 85 1018.0
20260507020505 2 69 0.0 0.0 0.00 0.00 0.00 85 1018.0
20260507020004 2 69 0.0 0.0 0.00 0.00 0.00 85 1018.0
20260507015504 2 69 0.0 0.0 0.00 0.00 0.00 84 1018.0
20260507015004 2 69 0.0 0.0 0.00 0.00 0.00 84 1018.0
20260507014503 2 69 0.0 0.0 0.00 0.00 0.00 84 1018.0
20260507014003 2 69 0.0 0.0 0.00 0.00 0.00 84 1018.0
20260507013503 2 63 0.0 0.0 0.00 0.00 0.00 84 1018.0
20260507013002 2 63 0.0 0.0 0.00 0.00 0.00 84 1018.0
20260507012502 2 63 0.0 0.0 0.00 0.00 0.00 84 1018.0
20260507012002 2 63 0.0 0.0 0.00 0.00 0.00 84 1018.0
20260507011501 2 80 0.0 0.0 0.00 0.00 0.00 83 1018.0
20260507011001 2 80 0.0 0.0 0.00 0.00 0.00 83 1018.0
20260507010501 2 80 0.0 0.0 0.00 0.00 0.00 83 1018.0
20260507010000 2 80 0.0 0.0 0.00 0.00 0.00 83 1018.0
20260507005500 3 129 0.0 0.0 0.00 0.00 0.00 83 1018.0
20260507005005 3 129 0.0 0.0 0.00 0.00 0.00 83 1018.0
20260507004504 3 129 0.0 0.0 0.00 0.00 0.00 83 1018.0
20260507004004 3 129 0.0 0.0 0.00 0.00 0.00 83 1018.0
20260507003504 3 225 0.0 0.0 0.00 0.00 0.00 82 1018.0
20260507003003 3 225 0.0 0.0 0.00 0.00 0.00 82 1018.0
20260507002503 3 225 0.0 0.0 0.00 0.00 0.00 82 1018.0
20260507002003 3 225 0.0 0.0 0.00 0.00 0.00 82 1018.0
20260507001502 3 225 0.0 0.0 0.00 0.00 0.00 82 1018.0
20260507001002 3 225 0.0 0.0 0.00 0.00 0.00 82 1018.0
20260507000501 3 225 0.0 0.0 0.00 0.00 0.00 82 1018.0
20260507000002 3 225 0.0 0.0 0.00 0.00 0.00 82 1018.0
20260506235501 3 225 0.0 0.0 0.00 0.00 0.00 82 1018.0
20260506235000 3 225 0.0 0.0 0.00 0.00 0.00 82 1018.0
20260506234500 3 225 0.0 0.0 0.00 0.00 0.00 80 1018.0
20260506234005 3 225 0.0 0.0 0.00 0.00 0.00 80 1018.0
20260506233504 3 225 0.0 0.0 0.00 0.00 0.00 80 1018.0
20260506233004 3 225 0.0 0.0 0.00 0.00 0.00 80 1018.0
20260506232504 4 225 0.0 0.0 0.00 0.00 0.00 80 1018.0
20260506232003 4 225 0.0 0.0 0.00 0.00 0.00 80 1018.0
20260506231503 4 225 0.0 0.0 0.00 0.00 0.00 79 1018.0
20260506231003 4 225 0.0 0.0 0.00 0.00 0.00 79 1018.0
20260506230502 5 225 0.0 0.0 0.00 0.00 0.00 79 1018.0
20260506230002 5 225 0.0 0.0 0.00 0.00 0.00 79 1018.0
20260506225501 5 225 0.0 0.0 0.00 0.00 0.00 78 1018.0
20260506225001 5 225 0.0 0.0 0.00 0.00 0.00 78 1018.0
20260506224501 5 225 0.0 0.0 0.00 0.00 0.00 78 1018.0
20260506224000 5 225 0.0 0.0 0.00 0.00 0.00 78 1018.0
20260506223505 5 225 0.0 0.0 0.00 0.00 0.00 79 1018.0
20260506223004 5 225 0.0 0.0 0.00 0.00 0.00 79 1018.0
20260506222504 5 225 0.0 0.0 0.00 0.00 0.00 78 1018.0
20260506222003 5 225 0.0 0.0 0.00 0.00 0.00 78 1018.0
20260506221504 5 225 0.0 0.0 0.00 0.00 0.00 78 1018.0
20260506221003 5 225 0.0 0.0 0.00 0.00 0.00 78 1018.0
20260506220502 6 225 0.0 0.0 0.00 0.00 0.00 78 1018.0
20260506220002 6 225 0.0 0.0 0.00 0.00 0.00 78 1018.0
20260506215502 6 242 0.0 0.0 0.00 0.00 0.00 77 1018.0
20260506215001 6 242 0.0 0.0 0.00 0.00 0.00 77 1018.0
20260506214501 6 242 0.0 0.0 0.00 0.00 0.00 78 1018.0
20260506214001 6 242 0.0 0.0 0.00 0.00 0.00 78 1018.0
20260506213500 6 242 0.0 0.0 0.00 0.00 0.00 76 1018.0
20260506213000 6 242 0.0 0.0 0.00 0.00 0.00 76 1018.0
20260506212505 6 242 0.0 0.0 0.00 0.00 0.00 76 1018.0
20260506212004 6 242 0.0 0.0 0.00 0.00 0.00 76 1018.0
20260506211504 6 242 0.0 0.0 0.00 0.00 0.00 75 1018.0
20260506211004 6 242 0.0 0.0 0.00 0.00 0.00 75 1018.0
20260506210503 6 242 0.0 0.0 0.00 0.00 0.00 74 1018.0
20260506210003 6 242 0.0 0.0 0.00 0.00 0.00 74 1018.0
20260506205503 6 242 0.0 0.0 0.00 0.00 0.00 74 1018.0
20260506205002 6 242 0.0 0.0 0.00 0.00 0.00 74 1018.0
20260506204502 6 242 0.0 0.0 0.00 0.00 0.00 74 1018.0
20260506204002 6 242 0.0 0.0 0.00 0.00 0.00 74 1018.0
20260506203501 6 241 0.0 0.0 0.00 0.00 0.00 73 1018.0
20260506203001 6 241 0.0 0.0 0.00 0.00 0.00 73 1018.0
20260506202501 6 241 0.0 0.0 0.00 0.00 0.00 72 1018.0
20260506202000 6 241 0.0 0.0 0.00 0.00 0.00 72 1018.0
20260506201005 6 241 0.0 0.0 0.00 0.00 0.00 71 1017.0
20260506200504 6 241 0.0 0.0 0.00 0.00 0.00 69 1017.0
20260506200004 6 241 0.0 0.0 0.00 0.00 0.00 69 1017.0
20260506195503 7 241 0.0 0.0 0.00 0.00 0.00 67 1017.0
20260506195003 7 241 0.0 0.0 0.00 0.00 0.00 67 1017.0
20260506194503 7 241 0.0 0.0 0.00 0.00 0.00 66 1018.0
20260506194003 7 241 0.0 0.0 0.00 0.00 0.00 66 1018.0
20260506193502 7 241 0.0 0.0 0.00 0.00 0.00 65 1017.0
20260506193002 7 241 0.0 0.0 0.00 0.00 0.00 65 1017.0
20260506192502 7 242 0.0 0.0 0.00 0.00 0.00 65 1017.0
20260506192001 7 242 0.0 0.0 0.00 0.00 0.00 65 1017.0
20260506191501 8 242 0.0 0.0 0.00 0.00 0.00 64 1017.0
20260506191001 8 242 0.0 0.0 0.00 0.00 0.00 64 1017.0
20260506190500 8 242 0.0 0.0 0.00 0.00 0.00 62 1017.0
20260506190000 8 242 0.0 0.0 0.00 0.00 0.00 62 1017.0
20260506185505 8 242 0.0 0.0 0.00 0.00 0.00 61 1017.0
20260506185004 8 242 0.0 0.0 0.00 0.00 0.00 61 1017.0
20260506184504 8 242 0.0 0.0 0.00 0.00 0.00 59 1017.0
20260506184004 8 242 0.0 0.0 0.00 0.00 0.00 59 1017.0
20260506183503 9 242 0.0 0.0 0.00 0.00 0.00 58 1017.0
20260506183003 9 242 0.0 0.0 0.00 0.00 0.00 58 1017.0
20260506182503 10 213 0.0 0.0 0.00 0.00 0.00 57 1017.0
20260506182002 10 213 0.0 0.0 0.00 0.00 0.00 57 1017.0
20260506181502 10 213 0.0 0.0 0.00 0.00 0.00 56 1016.0
20260506181002 10 213 0.0 0.0 0.00 0.00 0.00 56 1016.0
20260506180501 10 213 0.0 0.0 0.00 0.00 0.00 54 1016.0
20260506180001 10 213 0.0 0.0 0.00 0.00 0.00 54 1016.0
20260506175501 11 213 0.0 0.0 0.00 0.00 0.00 53 1016.0
20260506174505 11 213 0.0 0.0 0.00 0.00 0.00 53 1016.0
20260506174004 11 213 0.0 0.0 0.00 0.00 0.00 53 1016.0
20260506173504 11 213 0.0 0.0 0.00 0.00 0.00 52 1016.0
20260506173004 11 213 0.0 0.0 0.00 0.00 0.00 52 1016.0
20260506172503 11 213 0.0 0.0 0.00 0.00 0.00 51 1016.0
20260506172003 11 213 0.0 0.0 0.00 0.00 0.00 51 1016.0
20260506171503 11 231 0.0 0.0 0.00 0.00 0.00 49 1016.0
20260506171002 11 231 0.0 0.0 0.00 0.00 0.00 49 1016.0
20260506170502 11 231 0.0 0.0 0.00 0.00 0.00 47 1016.0
20260506170002 11 231 0.0 0.0 0.00 0.00 0.00 47 1016.0
20260506165501 11 231 0.0 0.0 0.00 0.00 0.00 48 1016.0
20260506165001 11 231 0.0 0.0 0.00 0.00 0.00 48 1016.0
20260506164501 12 231 0.0 0.0 0.00 0.00 0.00 48 1016.0
20260506164000 12 231 0.0 0.0 0.00 0.00 0.00 48 1016.0
20260506163500 12 231 0.0 0.0 0.00 0.00 0.00 47 1016.0
20260506163005 12 231 0.0 0.0 0.00 0.00 0.00 47 1016.0
20260506162505 12 231 0.0 0.0 0.00 0.00 0.00 44 1016.0
20260506162004 12 231 0.0 0.0 0.00 0.00 0.00 44 1016.0
20260506161504 12 231 0.0 0.0 0.00 0.00 0.00 44 1016.0
20260506161004 12 231 0.0 0.0 0.00 0.00 0.00 44 1016.0
20260506160503 12 245 0.0 0.0 0.00 0.00 0.00 42 1016.0
20260506160003 12 245 0.0 0.0 0.00 0.00 0.00 42 1016.0
20260506155503 12 245 0.0 0.0 0.00 0.00 0.00 42 1016.0
20260506155002 12 245 0.0 0.0 0.00 0.00 0.00 42 1016.0
20260506154502 12 245 0.0 0.0 0.00 0.00 0.00 43 1016.0
20260506154002 12 245 0.0 0.0 0.00 0.00 0.00 43 1016.0
20260506153502 12 245 0.0 0.0 0.00 0.00 0.00 43 1016.0
20260506153001 12 245 0.0 0.0 0.00 0.00 0.00 43 1016.0
20260506152501 12 245 0.0 0.0 0.00 0.00 0.00 43 1016.0
20260506152000 12 245 0.0 0.0 0.00 0.00 0.00 43 1016.0
20260506151505 12 245 0.0 0.0 0.00 0.00 0.00 43 1016.0
20260506151004 12 245 0.0 0.0 0.00 0.00 0.00 43 1016.0
20260506150504 12 253 0.0 0.0 0.00 0.00 0.00 41 1016.0
20260506150004 12 253 0.0 0.0 0.00 0.00 0.00 41 1016.0
20260506145503 12 247 0.0 0.0 0.00 0.00 0.00 40 1016.0
20260506145003 12 247 0.0 0.0 0.00 0.00 0.00 40 1016.0
20260506144503 12 243 0.0 0.0 0.00 0.00 0.00 41 1016.0
20260506144003 12 243 0.0 0.0 0.00 0.00 0.00 41 1016.0
20260506143503 13 243 0.0 0.0 0.00 0.00 0.00 44 1016.0
20260506143002 13 243 0.0 0.0 0.00 0.00 0.00 44 1016.0
20260506142502 13 251 0.0 0.0 0.00 0.00 0.00 43 1016.0
20260506142002 13 251 0.0 0.0 0.00 0.00 0.00 43 1016.0
20260506141501 13 251 0.0 0.0 0.00 0.00 0.00 43 1016.0
20260506141001 13 251 0.0 0.0 0.00 0.00 0.00 43 1016.0
20260506140501 13 251 0.0 0.0 0.00 0.00 0.00 41 1016.0
20260506140000 13 251 0.0 0.0 0.00 0.00 0.00 41 1016.0
20260506135500 13 251 0.0 0.0 0.00 0.00 0.00 41 1016.0
20260506135005 13 251 0.0 0.0 0.00 0.00 0.00 41 1016.0
20260506134504 13 251 0.0 0.0 0.00 0.00 0.00 41 1016.0
20260506134004 13 251 0.0 0.0 0.00 0.00 0.00 41 1016.0
20260506133504 13 251 0.0 0.0 0.00 0.00 0.00 38 1016.0
20260506133004 13 251 0.0 0.0 0.00 0.00 0.00 38 1016.0
20260506132503 13 251 0.0 0.0 0.00 0.00 0.00 40 1016.0
20260506132003 13 251 0.0 0.0 0.00 0.00 0.00 40 1016.0
20260506131503 13 251 0.0 0.0 0.00 0.00 0.00 38 1016.0
20260506131002 13 251 0.0 0.0 0.00 0.00 0.00 38 1016.0
20260506130502 13 251 0.0 0.0 0.00 0.00 0.00 38 1016.0
20260506130002 13 251 0.0 0.0 0.00 0.00 0.00 38 1016.0
20260506125501 13 261 0.0 0.0 0.00 0.00 0.00 39 1016.0
20260506125001 13 261 0.0 0.0 0.00 0.00 0.00 39 1016.0
20260506124500 13 261 0.0 0.0 0.00 0.00 0.00 38 1016.0
20260506124000 13 261 0.0 0.0 0.00 0.00 0.00 38 1016.0
20260506123004 13 261 0.0 0.0 0.00 0.00 0.00 37 1016.0
20260506122504 13 246 0.0 0.0 0.00 0.00 0.00 37 1016.0
20260506122004 13 246 0.0 0.0 0.00 0.00 0.00 37 1016.0
20260506121504 13 246 0.0 0.0 0.00 0.00 0.00 42 1016.0
20260506121003 13 246 0.0 0.0 0.00 0.00 0.00 42 1016.0
20260506120503 13 252 0.0 0.0 0.00 0.00 0.00 42 1016.0
20260506120003 13 252 0.0 0.0 0.00 0.00 0.00 42 1016.0
20260506115503 13 252 0.0 0.0 0.00 0.00 0.00 41 1016.0
20260506115002 13 252 0.0 0.0 0.00 0.00 0.00 41 1016.0
20260506114502 13 254 0.0 0.0 0.00 0.00 0.00 39 1016.0
20260506114002 13 254 0.0 0.0 0.00 0.00 0.00 39 1016.0
20260506113502 13 254 0.0 0.0 0.00 0.00 0.00 39 1016.0
20260506113001 13 254 0.0 0.0 0.00 0.00 0.00 39 1016.0
20260506112501 13 254 0.0 0.0 0.00 0.00 0.00 38 1016.0
20260506112001 13 254 0.0 0.0 0.00 0.00 0.00 38 1016.0
20260506111500 13 252 0.0 0.0 0.00 0.00 0.00 38 1016.0
20260506111000 13 252 0.0 0.0 0.00 0.00 0.00 38 1016.0
20260506110505 13 252 0.0 0.0 0.00 0.00 0.00 41 1016.0
20260506110005 13 252 0.0 0.0 0.00 0.00 0.00 41 1016.0
20260506105504 13 255 0.0 0.0 0.00 0.00 0.00 41 1016.0
20260506105004 13 255 0.0 0.0 0.00 0.00 0.00 41 1016.0
20260506104504 13 270 0.0 0.0 0.00 0.00 0.00 44 1016.0
20260506104003 13 270 0.0 0.0 0.00 0.00 0.00 44 1016.0
20260506103503 13 270 0.0 0.0 0.00 0.00 0.00 50 1016.0
20260506103003 13 270 0.0 0.0 0.00 0.00 0.00 50 1016.0
20260506102503 13 270 0.0 0.0 0.00 0.00 0.00 54 1016.0
20260506102002 13 270 0.0 0.0 0.00 0.00 0.00 54 1016.0
20260506101502 13 270 0.0 0.0 0.00 0.00 0.00 58 1016.0
20260506101002 13 270 0.0 0.0 0.00 0.00 0.00 58 1016.0
20260506100502 12 270 0.0 0.0 0.00 0.00 0.00 64 1016.0
20260506100001 12 270 0.0 0.0 0.00 0.00 0.00 64 1016.0
20260506095501 12 270 0.0 0.0 0.00 0.00 0.00 66 1016.0
20260506095001 12 270 0.0 0.0 0.00 0.00 0.00 66 1016.0
20260506094501 12 270 0.0 0.0 0.00 0.00 0.00 67 1016.0
20260506094000 12 270 0.0 0.0 0.00 0.00 0.00 67 1016.0
20260506093500 12 270 0.0 0.0 0.00 0.00 0.00 67 1016.0
20260506093005 12 270 0.0 0.0 0.00 0.00 0.00 67 1016.0
20260506092505 12 270 0.0 0.0 0.00 0.00 0.00 67 1016.0
20260506092004 12 270 0.0 0.0 0.00 0.00 0.00 67 1016.0
20260506091504 12 270 0.0 0.0 0.00 0.00 0.00 66 1016.0
20260506091003 12 270 0.0 0.0 0.00 0.00 0.00 66 1016.0
20260506090503 12 270 0.0 0.0 0.00 0.00 0.00 64 1016.0
20260506090003 12 270 0.0 0.0 0.00 0.00 0.00 64 1016.0
20260506085503 12 270 0.0 0.0 0.00 0.00 0.00 65 1016.0
20260506085002 12 270 0.0 0.0 0.00 0.00 0.00 65 1016.0
20260506084502 11 270 0.0 0.0 0.00 0.00 0.00 67 1016.0
20260506084002 11 270 0.0 0.0 0.00 0.00 0.00 67 1016.0
20260506083502 11 294 0.0 0.0 0.00 0.00 0.00 70 1016.0
20260506083001 11 294 0.0 0.0 0.00 0.00 0.00 70 1016.0
20260506082501 10 287 0.0 0.0 0.00 0.00 0.00 73 1016.0
20260506082001 10 287 0.0 0.0 0.00 0.00 0.00 73 1016.0
20260506081500 10 287 0.0 0.0 0.00 0.00 0.00 78 1016.0
20260506081000 10 287 0.0 0.0 0.00 0.00 0.00 78 1016.0
20260506080505 9 287 0.0 0.0 0.00 0.00 0.00 82 1016.0
20260506073503 8 230 0.0 0.0 0.00 0.00 0.00 84 1015.0
20260506073003 8 230 0.0 0.0 0.00 0.00 0.00 84 1015.0
20260506072502 7 230 0.0 0.0 0.00 0.00 0.00 84 1015.0
20260506072002 7 230 0.0 0.0 0.00 0.00 0.00 84 1015.0
20260506071502 7 230 0.0 0.0 0.00 0.00 0.00 84 1015.0
20260506071001 7 230 0.0 0.0 0.00 0.00 0.00 84 1015.0
20260506070501 7 219 0.0 0.0 0.00 0.00 0.00 84 1015.0